TIME,DELAY(SENSOR),PRES,T(CTD),SAL,OXYGEN,RAWTEMP,T(OPTODE),TCPHASE,FLUOR,BETA(BETA700),BETA(BETA412),BETA(BETA440),CDOM,C(CSC),ED(ED412.40),ED(ED444.00),ED(ED489.70),ED(ED554.30),LU(LU411.80),LU(LU443.40),LU(LU489.60),LU(LU554.10),COMP,TILTX,TILTX(TILTY),CHECK
1365716884,5805,497.2600097656250000,7.1135001182556150,34.0948982238769500,99.9194335937500000,584.2863159179688000,7.0907149314880370,46.4595718383789060,51,104,86,81,78,14884,2147748928,2147427501,2148006189,2147874203,2147625910,2147081755,2148243904,2147196781,2984,4,13,57334
1365716994,5809,486.5000000000000000,7.2231001853942870,34.0943984985351560,102.8439025878906200,580.1818847656250000,7.2226219177246090,46.0858802795410160,51,103,86,79,77,14884,2147746752,2147423131,2148004800,2147872557,2147626678,2147078500,2148240960,2147198089,3074,4,13,16977
1365717106,5807,475.5599975585937500,7.3983998298645020,34.0928001403808600,109.5280990600586000,574.6411743164062000,7.4004502296447750,45.3154411315918000,51,103,84,79,77,14885,2147748598,2147425197,2148004096,2147872137,2147625124,2147086829,2148241581,2147196452,2224,4,13,45563
1365717227,5810,463.9899902343750000,7.6613998413085940,34.0906982421875000,116.1528015136718800,566.1334228515625000,7.6729769706726070,44.5222206115722660,51,105,87,79,77,14886,2147746093,2147423972,2148005257,2147872155,2147622070,2147085696,2148238153,2147198573,2333,4,13,56367
1365717348,5809,452.9400024414062500,7.7912001609802250,34.0843009948730500,126.0074005126953100,562.6068725585938000,7.7857570648193360,43.5313796997070300,50,101,89,80,75,14887,2147744192,2147424237,2148006162,2147873920,2147620763,2147089124,2148233472,2147201572,1495,4,13,13501
1365717471,5810,442.3500061035156000,8.0705003738403320,34.0733985900878900,139.0612945556640600,554.2205200195312000,8.0535297393798830,42.2265892028808600,50,104,88,81,74,14882,2147744804,2147420763,2148002806,2147869348,2147619721,2147088877,2148236480,2147198985,649,4,13,64802
1365717603,5810,431.2600097656250000,8.3198995590209960,34.0764999389648440,151.5677032470703000,546.2866210937500000,8.3063144683837890,41.0489807128906250,50,103,87,80,74,14889,2147744612,2147428379,2148003602,2147870765,2147620845,2147091611,2148228416,2147200338,3555,3,13,39750
1365717726,5806,420.6700134277344000,8.5193004608154300,34.0783996582031250,157.3972930908203000,539.7703857421875000,8.5135440826416020,40.4752883911132800,50,103,87,79,74,14889,2147739675,2147426294,2148005202,2147874596,2147617755,2147090331,2148234532,2147201636,2484,3,13,55139
1365717858,5807,408.8099975585937500,8.7594995498657230,34.0786018371582000,167.6345062255859400,532.2258300781250000,8.7530593872070310,39.5676002502441400,50,103,89,80,73,14889,2147740096,2147423698,2148002432,2147875236,2147615597,2147090496,2148227785,2147202468,902,4,13,65246
1365717968,5812,398.4700012207031000,8.9347000122070310,34.0803985595703100,173.3858032226562500,526.5482177734375000,8.9330101013183600,39.0512390136718750,50,100,86,80,74,14891,2147738313,2147422080,2148002066,2147872036,2147614912,2147093970,2148232658,2147203044,3008,3,13,24382
1365718091,5812,386.8999938964844000,9.1238002777099610,34.0885009765625000,177.3762969970703000,521.0654907226562000,9.1065483093261720,38.6733207702636700,50,102,87,80,72,14887,2147739968,2147425042,2148004818,2147872192,2147614665,2147092306,2148227739,2147200813,3401,4,13,46069
1365718212,5808,376.5499877929687500,9.3765001296997070,34.0924987792968750,182.4788970947265600,512.7222290039062000,9.3701992034912110,38.1780204772949200,50,103,89,80,73,14885,2147738230,2147423844,2148004571,2147871040,2147614582,2147095040,2148228571,2147203931,2354,4,13,52194
1365718368,5808,366.2500000000000000,9.7075996398925780,34.1012992858886700,187.6723022460937500,502.2428894042969000,9.7006301879882810,37.6495513916015600,50,106,88,80,71,14885,2147735881,2147425362,2148002861,2147873316,2147611501,2147099940,2148225133,2147203748,651,4,13,21120
1365718566,5808,355.0899963378906000,10.2006998062133790,34.1095008850097660,197.1383056640625000,486.4317932128906000,10.1977396011352540,36.7729988098144500,49,103,88,80,70,14884,2147738267,2147425426,2148000530,2147872256,2147610029,2147097554,2148224036,2147204809,2772,4,14,36939
1365718722,5806,343.5000000000000000,10.6539001464843750,34.1245994567871100,206.2561035156250000,472.2814025878906000,10.6412296295166020,35.9803504943847660,49,102,86,80,70,14884,2147735067,2147426605,2148003492,2147871899,2147604059,2147108004,2148222683,2147207945,1848,3,13,59558
1365718843,5806,331.8500061035156000,11.0160999298095700,34.1395988464355500,207.6470031738281200,460.1908874511719000,11.0191602706909180,35.6985893249511700,49,105,90,79,71,14883,2147732489,2147425243,2148004873,2147871707,2147605074,2147108672,2148221869,2147206299,1388,4,14,64593
1365718966,5809,321.2200012207031000,11.6829996109008790,34.1637992858886700,204.8497009277343800,439.4085083007812500,11.6667995452880860,35.5276794433593750,49,103,86,79,70,14879,2147729481,2147427821,2148008237,2147872676,2147601490,2147107510,2148214601,2147204946,868,3,14,59881
1365719109,5806,310.9299926757812500,12.1808996200561520,34.1745986938476560,204.6694030761718800,421.4789123535156000,12.2236499786376950,35.2515602111816400,48,102,87,81,69,14883,2147728950,2147428790,2148010349,2147871296,2147600576,2147110564,2148219547,2147206098,3154,3,14,29478
1365719296,5810,297.7300109863281000,13.1420001983642580,34.2374992370605500,208.0747070312500000,391.0445861816406000,13.1653099060058600,34.5731697082519500,48,102,85,79,68,14881,2147727451,2147428891,2148019072,2147870701,2147593572,2147122651,2148218230,2147207689,1279,3,13,16766
1365719419,5806,285.5599975585937500,14.0488004684448240,34.3019981384277340,215.5265960693359400,361.7167053222656000,14.0690803527832030,33.7019996643066400,49,102,87,79,67,14879,2147724946,2147433344,2148030372,2147870601,2147590912,2147130432,2148217938,2147207085,3524,4,14,39433
1365719518,5807,274.7799987792969000,14.3828001022338870,34.3401985168457000,216.8159942626953000,351.6560974121094000,14.3784103393554690,33.4798583984375000,48,104,88,80,67,14877,2147722368,2147434029,2148035264,2147870125,2147588809,2147135058,2148211876,2147210157,2953,3,14,2803
1365719619,5808,264.2500000000000000,15.4163999557495120,34.4477005004882800,214.4904022216797000,317.8858032226562500,15.4145402908325200,33.1085281372070300,49,107,87,79,66,14875,2147721097,2147442304,2148061056,2147868397,2147585270,2147144027,2148222317,2147208484,2921,3,14,25876
1365719740,5806,253.6799926757812500,16.0069999694824220,34.5302009582519500,215.9492950439453000,295.4549865722656000,16.1012592315673830,32.7032814025878900,49,104,88,80,66,14872,2147719899,2147443236,2148069942,2147870738,2147581458,2147157120,2148221714,2147211776,1480,2,14,27981
1365719896,5806,242.7200012207031200,17.0806007385253900,34.6697998046875000,216.0709075927734400,263.1881103515625000,17.0876808166503900,32.2365417480468750,49,104,87,80,65,14872,2147716086,2147464146,2148122752,2147873088,2147575360,2147171620,2148242066,2147213010,2142,3,14,62460
1365720061,5807,231.8500061035156200,17.7723999023437500,34.7675018310546900,216.1903991699218800,240.9369049072265600,17.7673397064209000,31.9181098937988280,50,104,87,80,65,14867,2147711707,2147470025,2148141915,2147870281,2147572251,2147181586,2148251501,2147214957,462,3,14,40576
1365720226,5805,219.8099975585937500,18.1788005828857420,34.8244018554687500,217.6282958984375000,228.1192016601562500,18.1587696075439450,31.6639404296875000,51,108,86,80,64,14860,2147719222,2147510994,2148245266,2147870948,2147570377,2147204178,2148299904,2147221476,3550,3,14,18083
1365720349,5811,208.3800048828125000,18.3404998779296880,34.8487014770507800,217.7234039306640600,221.0877075195312500,18.3735008239746100,31.5618705749511720,51,107,88,79,65,14857,2147721755,2147551606,2148344274,2147870884,2147574134,2147240960,2148349284,2147222089,46,3,14,65533
1365720470,5811,197.3300018310547000,18.9321002960205080,34.9192008972168000,213.6591033935547000,199.9494018554687500,19.0191307067871100,31.4892597198486330,57,110,86,81,63,14850,2147731922,2147585270,2148417142,2147871232,2147576466,2147261430,2148377590,2147225206,3557,2,15,20885
1365720544,5812,191.2799987792968800,19.2259998321533200,34.9663009643554700,214.0001068115234400,191.9192047119140600,19.2644691467285160,31.3615207672119140,57,113,86,82,63,14843,2147749229,2147648786,2148554742,2147871030,2147582902,2147298944,2148446162,2147232813,2946,2,15,40104
1365720599,5811,187.2899932861328000,19.4319000244140620,34.9938011169433600,214.7855072021484400,186.4763031005859400,19.4307994842529300,31.2457294464111330,63,116,90,83,63,14839,2147765458,2147701366,2148684059,2147873819,2147590564,2147336557,2148502107,2147234989,2833,3,14,17480
1365720654,5810,183.5800018310547000,19.6870002746582030,35.0284996032714840,214.8811950683593800,176.8070068359375000,19.7263603210449220,31.1101207733154300,68,112,85,82,64,14837,2147770514,2147728064,2148736603,2147873444,2147589933,2147345627,2148522486,2147234112,2324,2,15,40803
1365720709,5806,180.0700073242187500,19.9790000915527340,35.0661010742187500,215.5816955566406200,168.9459075927734400,19.9667491912841800,30.9672508239746100,70,113,89,81,64,14833,2147799222,2147823936,2148942226,2147873334,2147599698,2147402806,2148621741,2147242761,1817,2,15,25158
1365720775,5812,175.9799957275390600,20.0291004180908200,35.0747985839843750,216.5614929199218800,166.6802978515625000,20.0360393524169920,30.8851394653320300,71,115,87,82,64,14827,2147828114,2147888640,2149065142,2147875364,2147610998,2147436059,2148665938,2147242112,1371,3,14,22429
1365720853,5807,171.7899932861328000,20.2248992919921880,35.1007003784179700,217.0341033935547000,160.5256958007812500,20.2243309020996100,30.7781696319580080,75,116,88,82,63,14825,2147871497,2148009280,2149327817,2147875209,2147627913,2147509632,2148780324,2147252726,1521,2,15,58354
1365720941,5805,167.7400054931640600,20.4778995513916000,35.1240005493164060,217.1634979248047000,152.2545013427734400,20.4774894714355470,30.6613101959228500,83,120,88,82,62,14821,2147911762,2148108937,2149527113,2147877357,2147645046,2147557540,2148861202,2147261174,510,2,15,42932
1365721040,5806,163.6300048828125000,20.6327991485595700,35.1400985717773440,218.0209045410156200,147.5491027832031200,20.6215591430664060,30.5541896820068360,84,121,90,82,63,14815,2147963547,2148216649,2149725202,2147880073,2147664137,2147604553,2148941101,2147266441,3563,2,16,50076
1365721141,5811,159.7500000000000000,20.9613990783691400,35.1642990112304700,218.6304016113281200,136.6912994384765600,20.9542007446289060,30.3793601989746100,102,123,89,83,62,14806,2148027510,2148352356,2150001353,2147880868,2147684580,2147656283,2149036315,2147273325,2585,2,16,48958
1365721240,5810,155.9700012207031200,21.1902999877929700,35.1799011230468750,219.4967041015625000,129.4239959716797000,21.1770000457763670,30.2394008636474600,104,125,87,82,62,14794,2148110116,2148522240,2150316178,2147886427,2147716946,2147733814,2149148589,2147281874,1370,2,16,65451
1365721350,5809,151.6000061035156200,21.2914009094238280,35.1865997314453100,220.6040039062500000,125.5526962280273400,21.2957401275634770,30.1321296691894530,108,123,93,84,62,14787,2148236242,2148768950,2150754614,2147891227,2147758592,2147839076,2149311762,2147291977,3462,2,15,417
1365721469,5808,146.7299957275390600,21.5860996246337900,35.2099990844726560,222.2285003662109400,116.3361968994140600,21.5785903930664060,29.9300003051757800,117,128,88,83,60,14775,2148431478,2149140187,2151404196,2147897060,2147829869,2147991716,2149541513,2147314861,1099,2,16,5836
1365721557,5810,142.2799987792968800,21.7203998565673830,35.2204017639160160,223.4828033447265600,112.7348022460937500,21.6891803741455080,29.8203697204589840,114,129,90,84,62,14767,2148694043,2149616036,2152205366,2147905974,2147926665,2148196937,2149838610,2147336420,97,2,14,43582
1365721634,5809,138.8300018310547000,21.9067993164062500,35.2364997863769500,224.3666992187500000,106.3273010253906200,21.8860397338867200,29.6934700012207030,123,129,91,83,60,14759,2148956681,2150068827,2152923245,2147913654,2148024036,2148387721,2150109814,2147357366,2395,1,16,26246
1365721733,5808,134.8200073242187500,22.0144004821777340,35.2193984985351560,222.5588073730468800,102.3155975341796900,22.0093498229980470,29.7314491271972660,132,126,92,83,63,14756,2149383661,2150790601,2154036754,2147929965,2148178221,2148687250,2150507977,2147396077,2086,2,15,62434
1365721834,5809,130.8999938964843800,22.0932006835937500,35.2197990417480500,221.3881988525390600,99.8352737426757800,22.0856208801269530,29.7582893371582030,144,131,90,85,62,14743,2150026715,2151784777,2155438838,2147948772,2148397302,2149068507,2150997504,2147438162,922,2,15,46224
1365721944,5810,126.8499984741211000,22.2933006286621100,35.2252998352050800,221.3258056640625000,93.7082138061523400,22.2741203308105470,29.6821708679199220,161,132,90,85,61,14717,2150885997,2153080301,2157210870,2147973366,2148672073,2149514221,2151573312,2147486454,3356,2,16,53230
1365722065,5807,123.0299987792968800,22.4542999267578120,35.2327003479003900,222.0155029296875000,88.1187210083007800,22.4461898803710940,29.5757007598876950,165,133,92,85,61,14711,2151889334,2154532041,2159043392,2147999186,2148996672,2150006884,2152191058,2147550189,2641,2,16,40512
1365722176,5809,118.6800003051757800,22.7353000640869140,35.2439994812011700,224.0494995117187500,79.3704986572265600,22.7157306671142580,29.3624992370605470,184,134,95,84,59,14680,2153675044,2157153609,2162377581,2148061156,2149562486,2150881856,2153264009,2147652022,3064,2,16,46131
1365722264,5808,114.5699996948242200,22.8747005462646500,35.2537002563476560,226.6161956787109400,74.6215820312500000,22.8621692657470700,29.1763896942138670,171,134,90,84,61,14673,2155565760,2159882669,2165572635,2148119753,2150206080,2151813668,2154365769,2147757696,2576,2,16,40159
1365722352,5811,110.5199966430664000,22.8959007263183600,35.2551994323730500,227.6069030761718800,73.5324783325195300,22.8957691192626950,29.1148700714111330,168,133,90,86,61,14686,2158062555,2163274779,2169226020,2148201024,2151076022,2153032448,2155700598,2147890496,2878,2,16,58400
1365722431,5806,106.7200012207031200,23.0203990936279300,35.2621994018554700,228.2621002197265600,70.4786911010742200,22.9899997711181640,29.0445308685302730,137,130,93,84,62,14691,2160537572,2166350756,2172173229,2148284370,2152012086,2154309970,2156954989,2148019657,3327,1,16,62439
1365722530,5812,102.6999969482421900,23.0419006347656250,35.2664985656738300,229.4073028564453000,68.8318634033203100,23.0408306121826170,28.9687995910644530,125,131,90,84,59,14700,2164771885,2171785170,2177813211,2148440676,2153703222,2156648886,2159299949,2148260388,77,2,15,48249
1365722640,5809,99.0100021362304700,23.2625999450683600,35.2753982543945300,229.6802062988281200,62.2557411193847660,23.2439308166503900,28.8724098205566400,105,125,93,84,60,14704,2169825353,2177952256,2183682468,2148597586,2155926793,2159631954,2162058825,2148534436,1233,1,16,52817
1365722706,5805,97.5299987792968800,23.3148002624511720,35.2821006774902340,230.5254974365234400,60.2388305664062500,23.3062496185302730,28.8068199157714840,93,128,92,85,58,14720,2172073051,2180308854,2185527250,2148677083,2156995419,2160933266,2163101394,2148647067,1283,2,16,6313
1365722784,5807,95.5400009155273400,23.3668003082275400,35.2845001220703100,231.2216949462890600,58.1544494628906250,23.3706798553466800,28.7476997375488280,88,125,92,84,61,14721,2176477476,2184961883,2189628598,2148822482,2159132982,2163633225,2165291785,2148865526,605,1,16,27863
1365722839,5806,93.2500000000000000,23.4787998199462900,35.2869987487793000,231.3215026855468800,54.9058303833007800,23.4711399078369140,28.7021999359130860,83,125,92,85,60,14730,2180393728,2188987913,2193015204,2148970038,2161155986,2166062921,2167212809,2149050678,3132,2,16,30569
1365722894,5816,91.0699996948242200,23.6203994750976560,35.2914009094238300,231.6118011474609400,50.4679908752441400,23.6084403991699220,28.6326408386230470,78,125,94,86,59,14685,2184779648,2193654573,2197119469,2149168822,2163614976,2168974409,2169483510,2149281563,2716,2,16,43314
1365722949,5807,88.9899978637695300,23.6634998321533200,35.2935981750488300,232.2328948974609400,49.0029983520507800,23.6537895202636720,28.5852108001709000,74,123,88,84,57,14733,2189585152,2198426523,2201288896,2149348324,2166366134,2172255305,2172036306,2149526646,3113,2,16,42011
1365723004,5811,86.9000015258789000,23.6690998077392580,35.2929000854492200,232.5563049316406200,48.6140403747558600,23.6658306121826170,28.5651607513427730,74,123,91,85,58,14734,2193620297,2202191634,2204261796,2149556434,2169115035,2175374957,2174400950,2149771492,2839,2,16,42594
1365723059,5808,84.7900009155273400,23.7084999084472660,35.2905006408691400,232.6118927001953000,47.5553207397460940,23.6986103057861330,28.5493297576904300,73,125,91,86,58,14722,2199336621,2208071515,2209614171,2149887113,2172046930,2178551963,2176654601,2150022674,2629,2,16,55362
1365723137,5809,81.4800033569336000,23.9328994750976560,35.3223991394043000,233.3648071289062500,40.0423507690429700,23.9313697814941400,28.4201202392578120,67,123,90,85,59,14734,2208817746,2216672137,2216646272,2150355465,2178597485,2185588123,2181677549,2150528027,3201,2,16,4353
1365723192,5809,78.6500015258789000,24.0011005401611330,35.3405990600585940,236.6369018554687500,38.0073394775390600,23.9944591522216800,28.2444992065429700,65,123,92,84,57,14739,2214718217,2221872749,2220710116,2150790363,2185330230,2192412809,2186290898,2150968164,3282,1,16,5713
1365723247,5807,75.8499984741211000,24.1096992492675780,35.3389015197753900,237.7991027832031200,34.3534317016601560,24.1077995300292970,28.1460990905761720,64,127,88,85,60,14739,2222921654,2229967424,2228070317,2151444233,2193162221,2200215588,2191538806,2151505444,3303,1,16,20385
1365723302,5806,73.2500000000000000,24.2366008758544920,35.3232002258300800,238.5122985839843800,30.6800498962402340,24.2218093872070300,28.0681304931640620,62,121,92,83,58,14737,2231784832,2239609545,2237816841,2152213129,2201036699,2208050057,2196843328,2152079926,3572,2,16,31165
1365723357,5809,70.9899978637695300,24.2446994781494140,35.3180999755859400,238.3002929687500000,29.6369705200195300,24.2541999816894530,28.0648307800292970,62,121,93,84,56,14741,2235864393,2242760128,2239937481,2152847835,2207853650,2214240886,2200558290,2152458368,3214,1,16,32821
1365723412,5807,68.8799972534179700,24.2966003417968750,35.3129005432128900,238.0429992675781200,28.2162399291992200,24.2983207702636720,28.0590190887451170,62,121,90,83,56,14736,2241838528,2248941778,2245407168,2153490660,2216054244,2222059392,2205608768,2153032731,2455,1,16,38606
1365723469,5809,66.7399978637695300,24.3405990600585940,35.3167991638183600,238.2839050292968800,26.9376201629638670,24.3380393981933600,28.0321407318115230,62,120,87,85,59,14745,2249898358,2257272429,2253401901,2154381714,2225383424,2231346011,2211858724,2153699181,1585,1,16,49606
1365723524,5807,64.5699996948242200,24.3582000732421880,35.3182983398437500,238.7476043701172000,26.2285308837890620,24.3600692749023440,28.0023994445800780,60,121,92,84,56,14736,2259970477,2267482075,2263844480,2155721636,2235868205,2241669430,2218906285,2154531236,815,1,16,60844
1365723579,5806,62.2700004577636700,24.3775997161865230,35.3149986267089840,238.9284973144531200,25.5818004608154300,24.3801593780517580,27.9864006042480470,60,120,90,85,56,14727,2266305700,2273150601,2268979291,2156897334,2243667629,2248219492,2222659282,2155018651,177,2,16,36756
1365723634,5806,59.7599983215332000,24.3784008026123050,35.3152999877929700,239.0914001464843800,25.4035892486572270,24.3857002258300780,27.9768505096435550,58,121,95,85,56,14727,2274790820,2281516800,2276873234,2158559478,2255155885,2259089993,2229798811,2155853037,3411,2,16,53293
1365723689,5809,57.0800018310546900,24.3794994354248050,35.3157005310058600,239.0935974121093800,25.3843193054199220,24.3862991333007800,27.9766006469726560,57,119,91,84,56,14729,2285577993,2292459748,2287791634,2160898011,2267480402,2270383085,2237024813,2156789211,3238,1,16,38416
1365723744,5810,54.3199996948242200,24.3857002258300780,35.3143997192382800,239.1313018798828000,25.2215499877929700,24.3913593292236330,27.9728107452392580,59,120,91,85,59,14727,2296584448,2303477403,2298686162,2163510290,2281698011,2283741092,2245843136,2158004050,3145,2,16,32524
1365723801,5807,51.4099998474121100,24.4102993011474600,35.3111000061035160,239.2483062744140600,24.4314308166503900,24.4159107208251950,27.9578399658203120,57,122,92,86,56,14730,2303358966,2308201417,2301864173,2165484763,2294146669,2294430793,2252288475,2158911753,3138,2,16,26630
1365723856,5809,48.6300010681152340,24.4398994445800780,35.3129005432128900,239.3842010498047000,23.3335704803466800,24.4500293731689450,27.9382190704345700,57,122,93,81,54,14724,2326868470,2333631899,2328902208,2171546267,2311857161,2311304502,2264070372,2160881837,3342,1,16,55409
1365723911,5807,45.8199996948242200,24.4542999267578120,35.3129997253418000,239.5498962402343800,22.9169692993164060,24.4629802703857420,27.9256191253662100,55,121,94,85,60,14730,2338281206,2344341458,2339205403,2175791204,2329959652,2327747556,2274814153,2162685778,3074,1,16,37778
1365723966,5809,43.1599998474121100,24.4594993591308600,35.3130989074707000,239.6730957031250000,22.7157497406005860,24.4692401885986330,27.9175491333007800,55,120,90,83,58,14733,2343036781,2348599177,2343242112,2179394048,2345494500,2340998180,2282898715,2164272996,2730,1,16,19589
1365724021,5808,40.6699981689453100,24.4624004364013670,35.3128013610839840,239.7077941894531200,22.6378593444824220,24.4716606140136720,27.9149894714355470,54,119,92,82,59,14734,2353626505,2358743040,2353306048,2184845741,2365119716,2359288164,2295376877,2166701933,2451,1,16,20197
1365724076,5808,38.2500000000000000,24.4764003753662100,35.3116989135742200,239.7998962402343800,22.1711997985839840,24.4861698150634770,27.9051799774169920,53,121,93,85,54,14737,2379564562,2386894464,2383444324,2195061476,2388303936,2380224960,2308681042,2169628653,2140,1,17,18944
1365724133,5806,35.8499984741210940,24.5002994537353500,35.3115005493164060,239.7922058105468800,21.4296607971191400,24.5092201232910160,27.8963108062744140,52,119,90,84,57,14736,2384098267,2389038555,2385263963,2200421266,2405978742,2394992045,2317772443,2171666377,2099,1,17,9345
1365724188,5811,33.5800018310546900,24.5069007873535160,35.3117980957031250,239.8968963623047000,21.0975399017334000,24.5195503234863280,27.8875808715820300,53,118,90,85,55,14734,2405709001,2411835410,2409276214,2210307565,2435908836,2423448082,2336703259,2175998372,2029,1,16,62543
1365724243,5803,31.2999992370605470,24.6023998260498050,35.3135986328125000,239.6889953613281200,18.6357002258300780,24.5961208343505860,27.8664608001709000,52,119,92,84,62,14733,2401704338,2405397092,2402080923,2215280493,2453114377,2436449188,2343801069,2177905216,1974,2,16,38936
1365724298,5807,29.2700004577636720,24.6497993469238280,35.3166999816894500,239.4235992431640600,16.6807498931884770,24.6569499969482420,27.8542308807373050,52,117,87,84,58,14732,2423419373,2429351872,2429039625,2229885458,2469719414,2449953846,2352352713,2180519661,2337,1,15,33098
1365724353,5805,27.4500007629394530,24.6660995483398440,35.3194007873535160,239.3583068847656200,15.5499496459960940,24.6921405792236330,27.8431396484375000,52,117,92,84,54,14740,2431682020,2436021814,2436171766,2237122011,2486690413,2463766153,2361307812,2182531218,2771,1,17,43279
1365724408,5805,25.5300006866455080,24.6886997222900400,35.3190002441406250,239.5937957763672000,14.9913301467895500,24.7095298767089840,27.8258495330810550,51,116,89,85,56,14734,2448918738,2454394258,2457597302,2252916013,2505669138,2479490276,2370482541,2185078665,3003,1,16,3526
